Location: Del Amo
(33.8464°N, 118.2104°W)
Time: 18:15:54
(UTC+00:00)

S-56A Canister/Altair - Pass Details

Date: 20 September 2024
Orbit: 636 x 2487 km, 38.9° (Epoch: 14 October)

Event Time Altitude Azimuth Distance (km) Brightness Sun altitude
Rises 22:25:40 0° 206° (SSW) 3,017 11.3 40.0°
Reaches altitude 10° 22:28:39 10° 187° (S) 2,024 10.3 39.5°
Maximum altitude 22:31:45 18° 142° (SE) 1,532 9.2 38.9°
Drops below altitude 10° 22:34:56 10° 97° (E) 2,074 9.5 38.4°
Sets 22:38:01 0° 79° (E) 3,122 10.2 37.8°
